sat.trackr.live / text

‹ back to catalog

STARLINK-1456

NORAD 45673 · 2020-035S

PAYLOAD ACTIVE UNKNOWN

§ Identity

Operator
Country
US
Launch date
2020-06-04
Launch site
AFETR
Launch vehicle
Mass (kg)
RCS (m²)

Purposes: comms

External: N2YO · Heavens-Above · Gunter

§ Orbital elements

Epoch: 2026-09-15T20:11:29.000832Z

Period
91.07 min
Inclination
53.0389°
Eccentricity
0.0005792
Mean motion
15.81148450 rev/d
Perigee alt
323.3 km
Apogee alt
331.1 km
Semi-major
6,705.3 km
B*
4.9442e-4
RAAN
191.2758°
Arg perigee
72.8752°
Mean anomaly
287.2903°
Rev number
34,882

§ Raw data

STARLINK-14561 45673U 20035S   26258.84130788  .00099378  00000+0  49442-3 0  99982 45673  53.0389 191.2758 0005792  72.8752 287.2903 15.81148450348825

JSON: /api/v1/satellites/45673 · /tle

For live sub-satellite position, see the globe view (requires WebGL).

§ Visibility from observer

Set your observer location to see the next 7 days of passes ≥ 10°. The values pass through the URL so the page stays shareable.

No JS? Fill the form by hand. The geolocation button needs JavaScript.